Temperature
7 6 5 6 6 7 7 7 7 7 7 7 6 6 6 6 5 5 5 5 5 6 6 6 6 6 6 6 5 5 5 5 5 5 5 5 6 6 6 6 6 6 6 6
5 5 6 7 7 7 7 7 6 6 7 6 5 5 5 5 5 5 5 5 5 5 5 5 5 5 5 5 5 5 5 5 5 5 5 5 5 5 5 5 5 5 6 6
6 6 7 7 6 6 6 6 6 6 6 5 5 5 4 4 4 5 5 5 5 5 5 5 5 5 5 5 4 4 4 4 4 4 4 4 4 4 5 5 5 5 5 5
5 6 6 6 6 6 6 6 6 5 5 4 4 4 4 4 3 3 4 4 4 4 4 4 4 4 4 4 4 4 3 4 4 4 4 4 4 4 4 4 4 4 4 4
5 5 6 5 6 6 5 5 5 5 4 3 3 3 3 3 3 3 3 3 4 4 4 4 4 4 4 4 3 3 3 3 3 3 3 3 3 3 3 3 3 3 3 4
4 5 5 5 5 5 5 4 4 3 3 3 3 3 3 2 3 3 3 3 3 3 3 3 3 3 3 3 3 3 3 3 3 3 3 3 3 3 3 3 3 3 3 3
4 4 4 5 5 4 4 3 3 3 3 3 3 3 3 3 2 2 2 3 3 3 3 3 3 3 3 2 2 2 2 2 2 2 2 2 2 2 2 2 2 2 2 2
4 4 4 4 4 4 3 4 4 4 3 3 3 2 2 2 1 2 2 2 2 2 2 2 2 2 2 2 2 2 2 2 1 1 1 1 1 1 1 1 1 1 2 2
3 4 4 3 4 4 3 3 3 2 2 2 2 1 1 1 1 1 1 1 1 1 1 2 2 2 1 1 1 1 1 1 1 1 1 1 1 1 1 1 1 1 1 1
3 3 2 2 3 3 3 2 1 2 2 2 2 1 2 2 1 0 -1 -0 0 1 1 1 1 1 1 1 0 0 0 0 0 0 0 0 0 0 0 -0 -0 0 0 0
2 2 2 1 2 2 2 2 2 1 1 2 2 2 2 1 1 0 -1 -0 0 0 -0 -0 0 0 0 -0 -0 -0 -0 -0 -0 -0 -0 -0 -0 -0 -0 -1 -1 -1 -1 -1
1 1 1 1 1 1 1 1 1 2 1 -0 1 2 1 -0 -1 -1 -1 -0 -0 -0 -0 -0 -1 -1 -1 -0 -1 -1 -1 -1 -1 -1 -1 -1 -1 -1 -1 -1 -1 -1 -1 -1
1 0 1 2 1 0 0 0 0 0 0 -1 0 1 -0 -2 -2 -1 -1 -1 -1 -1 -1 -1 -1 -1 -1 -1 -1 -1 -1 -1 -2 -2 -2 -2 -2 -2 -2 -2 -2 -2 -2 -2
2 -0 1 2 2 0 -0 -0 -0 -0 -0 -1 -0 1 0 -1 -2 -2 -1 -1 -1 -1 -1 -2 -2 -1 -2 -2 -2 -2 -2 -2 -2 -2 -2 -2 -2 -2 -2 -2 -2 -3 -3 -3
0 -0 -1 -0 0 -0 -0 -0 -1 -1 -1 -0 0 -0 0 -1 -2 -2 -2 -2 -2 -2 -2 -2 -2 -2 -2 -2 -2 -2 -3 -3 -3 -3 -3 -3 -3 -3 -3 -3 -3 -3 -3 -3
-1 -1 -1 -1 -1 -1 -1 -1 -1 -1 -1 -1 -1 -1 -1 -2 -2 -3 -3 -3 -3 -3 -3 -3 -3 -3 -3 -3 -3 -3 -3 -4 -4 -3 -3 -3 -4 -4 -4 -4 -4 -4 -4 -4
-2 -2 -1 -1 -2 -1 -1 -2 -2 -2 -3 -2 -1 -1 -3 -4 -4 -4 -4 -4 -4 -3 -3 -3 -3 -3 -3 -3 -4 -4 -4 -4 -4 -4 -4 -4 -4 -4 -5 -5 -5 -5 -5 -5
-2 -2 -2 -2 -2 -1 -0 -2 -2 -3 -3 -4 -4 -4 -4 -4 -4 -4 -3 -3 -4 -4 -4 -4 -4 -4 -4 -4 -4 -4 -5 -5 -5 -5 -5 -5 -5 -5 -5 -5 -5 -5 -5 -6
-3 -2 -2 -2 -2 -2 -2 -3 -4 -4 -3 -5 -5 -5 -5 -5 -5 -5 -4 -4 -4 -4 -4 -5 -5 -5 -5 -5 -5 -5 -5 -6 -6 -6 -6 -6 -6 -6 -6 -6 -6 -6 -6 -6
-4 -3 -3 -3 -2 -2 -1 -4 -4 -4 -3 -5 -5 -6 -6 -6 -6 -5 -4 -4 -5 -5 -5 -5 -5 -6 -6 -6 -6 -6 -6 -7 -7 -7 -7 -6 -7 -7 -7 -7 -7 -7 -7 -7
-4 -4 -3 -3 -3 -3 -4 -5 -4 -3 -2 -5 -6 -6 -7 -7 -6 -6 -6 -6 -6 -6 -6 -6 -6 -6 -7 -7 -7 -7 -7 -7 -7 -7 -7 -7 -7 -7 -7 -8 -8 -8 -8 -8
-4 -4 -5 -4 -4 -3 -6 -6 -5 -4 -5 -5 -6 -6 -6 -7 -7 -7 -7 -7 -7 -7 -7 -7 -7 -7 -8 -8 -8 -8 -8 -8 -8 -8 -8 -8 -8 -8 -8 -8 -9 -9 -9 -9
-6 -5 -5 -5 -4 -6 -7 -6 -6 -6 -6 -6 -6 -6 -6 -7 -8 -8 -8 -8 -8 -8 -8 -8 -8 -8 -8 -9 -9 -9 -9 -9 -9 -9 -9 -9 -9 -9 -9 -9 -9 -10 -10 -10
-7 -8 -7 -7 -7 -8 -7 -7 -7 -7 -7 -7 -7 -7 -7 -8 -8 -9 -9 -9 -9 -9 -9 -9 -9 -9 -9 -9 -9 -9 -9 -9 -9 -9 -9 -9 -10 -10 -10 -10 -10 -11 -11 -11
-8 -9 -8 -8 -8 -9 -8 -8 -7 -7 -7 -7 -8 -8 -8 -9 -9 -9 -10 -10 -10 -10 -10 -10 -10 -10 -10 -10 -10 -10 -10 -10 -10 -10 -10 -10 -10 -11 -11 -11 -11 -11 -11 -11
-10 -9 -8 -7 -8 -9 -8 -7 -8 -8 -8 -8 -9 -9 -9 -9 -10 -10 -10 -11 -11 -11 -11 -11 -11 -11 -10 -11 -11 -11 -11 -11 -11 -11 -11 -11 -11 -11 -12 -12 -12 -12 -12 -12
Wind_Speed
1 2 4 7 8 6 4 4 6 6 3 3 8 10 9 6 6 7 7 8 8 8 6 5 5 5 5 4 4 3 3 3 3 2 2 2 2 1 1 3 4 4 4 4
2 4 7 4 4 5 5 6 7 5 2 4 6 10 9 6 7 8 9 9 9 7 5 6 6 5 5 5 5 4 4 4 3 3 3 2 2 1 1 2 3 3 3 3
5 4 3 3 3 4 6 7 6 5 4 2 4 8 6 5 5 5 6 7 7 9 8 7 7 6 5 6 6 5 5 4 4 3 2 2 1 1 1 1 1 1 1 2
4 4 2 2 4 5 6 5 5 4 2 4 1 5 7 4 5 5 6 6 7 7 7 7 7 6 5 5 4 5 5 4 3 4 4 4 3 3 2 2 1 1 0 1
4 2 2 4 5 5 5 2 3 3 3 3 2 4 8 3 6 7 6 6 6 6 7 7 7 6 5 5 4 4 4 4 4 4 5 5 3 2 2 1 1 1 1 1
4 2 2 3 2 2 2 2 2 2 2 4 6 6 7 5 7 5 4 5 5 4 5 5 5 4 3 3 3 3 4 4 4 4 4 5 4 3 3 2 2 2 1 1
4 3 2 0 1 1 3 3 2 3 2 6 3 5 8 6 5 5 5 5 3 3 4 4 4 4 3 3 3 3 4 3 4 4 4 4 5 5 5 4 4 3 2 2
2 5 3 2 4 3 3 5 5 5 5 5 2 6 6 3 2 1 1 1 1 2 3 4 5 5 4 4 4 4 4 4 3 4 4 4 4 4 4 4 4 4 3 3
4 5 2 1 1 4 3 4 4 3 2 4 6 6 6 2 1 1 1 0 1 2 2 3 3 4 4 4 4 4 4 4 3 3 3 3 3 4 4 4 4 3 3 3
5 4 4 2 1 1 3 4 4 3 3 6 6 6 5 5 5 4 4 4 4 2 1 2 2 3 3 3 3 3 3 3 3 3 3 3 3 4 3 3 4 4 3 3
3 4 3 1 5 6 4 3 4 4 4 4 5 7 5 6 6 5 5 5 4 3 3 2 2 2 2 2 2 2 2 2 2 2 2 3 3 3 3 3 3 3 3 3
3 3 4 7 4 3 5 6 7 5 6 5 5 8 3 3 4 4 4 3 3 3 2 2 2 1 1 2 2 2 2 2 2 2 2 2 2 2 3 3 3 3 3 3
4 3 2 5 2 1 3 4 6 4 3 5 6 8 1 0 1 2 3 3 2 2 2 2 2 2 2 2 2 2 2 2 2 2 2 2 2 2 3 3 3 3 3 3
4 5 7 9 6 4 5 6 6 6 6 7 10 11 8 6 5 5 4 4 3 3 3 3 3 3 3 3 3 3 3 2 2 2 2 2 3 3 3 2 2 3 3 3
3 5 6 9 8 6 8 10 10 11 11 11 11 11 13 9 8 6 5 4 4 4 4 5 5 4 4 3 3 3 3 2 2 2 3 3 3 3 2 2 2 2 2 3
3 4 3 7 7 7 10 12 12 13 11 13 13 14 11 7 4 4 5 5 6 6 6 6 5 5 5 4 4 3 3 3 2 3 3 3 2 2 2 2 2 2 2 3
4 4 3 6 5 5 10 12 13 9 8 9 14 14 6 5 6 6 7 7 7 7 6 6 6 6 6 5 4 4 4 2 2 3 3 2 2 2 3 3 2 3 3 3
6 5 3 3 2 9 9 3 7 9 10 10 8 7 6 8 7 6 6 7 7 6 6 6 5 5 4 4 3 3 2 2 2 2 3 3 2 3 2 2 3 3 3 3
6 6 4 3 6 10 8 4 4 6 8 8 10 10 7 5 3 4 4 4 5 6 6 5 4 4 3 3 2 2 2 2 2 3 3 3 3 2 2 2 3 3 3 3
2 4 5 5 6 8 7 2 2 2 7 4 5 7 5 1 3 5 2 2 3 3 3 3 2 1 2 2 2 2 2 2 3 3 3 3 2 2 3 3 3 2 3 3
3 4 7 8 9 9 5 1 3 4 6 2 3 4 4 4 5 3 2 2 2 2 2 1 0 1 2 1 2 2 2 3 3 2 2 2 2 2 3 3 2 2 3 3
7 6 7 6 8 10 2 3 6 5 2 2 3 3 3 4 3 2 2 2 2 2 2 1 0 1 1 1 2 1 2 3 2 1 2 2 2 2 2 2 2 2 3 3
7 7 5 8 8 2 3 4 2 1 3 3 3 3 3 3 3 2 2 2 2 1 1 1 0 0 1 1 1 2 3 2 1 1 2 2 2 2 2 2 2 2 2 2
3 2 3 5 7 5 4 4 3 3 3 3 3 2 2 3 3 3 2 2 2 1 1 1 0 0 2 2 2 2 2 1 1 2 2 2 1 2 2 2 2 2 3 3
4 4 4 6 6 4 4 4 4 3 2 2 1 1 2 2 2 2 2 2 2 2 1 1 1 1 2 2 2 2 2 1 1 2 2 2 2 2 2 2 2 3 4 5
3 5 5 7 4 4 5 4 2 2 2 2 1 2 1 1 2 2 2 2 2 2 1 1 1 2 2 2 2 3 2 1 1 2 2 2 1 2 2 2 3 5 5 7
Wind_Direction
71 103 211 219 213 220 211 222 245 252 238 226 245 261 266 252 229 225 223 215 211 212 202 178 171 164 154 153 155 159 162 161 150 157 165 167 169 144 73 59 70 77 78 91
51 244 238 229 224 234 243 255 264 279 261 236 270 275 269 252 238 228 222 219 213 206 193 185 177 170 168 173 176 173 175 177 173 176 184 186 177 173 126 69 58 68 75 88
201 242 246 213 223 229 244 237 248 261 318 299 306 295 268 263 248 238 227 220 212 202 198 195 188 182 179 183 188 189 185 185 185 171 149 132 116 106 96 63 6 22 66 86
236 259 251 218 229 212 247 233 236 244 282 277 225 284 278 257 274 257 239 223 216 206 197 192 185 183 186 195 192 187 185 186 190 174 170 168 172 181 201 205 221 328 73 107
249 252 217 229 236 204 224 231 230 235 221 275 233 232 279 291 269 260 240 227 216 202 193 190 188 187 186 184 185 187 182 187 192 193 188 188 189 189 175 168 190 211 239 184
251 270 222 224 250 207 169 49 33 53 115 259 218 200 272 240 236 250 238 224 210 198 192 190 186 170 167 169 173 177 179 193 198 200 199 193 191 181 170 182 201 217 236 242
297 283 271 152 104 27 91 93 7 330 276 250 194 203 248 254 247 233 234 234 224 202 189 180 174 170 170 174 182 181 185 203 207 205 209 205 198 193 193 198 205 209 219 243
251 276 240 206 192 200 195 162 180 222 239 276 265 230 250 267 276 265 224 233 223 197 191 183 183 180 182 188 190 188 193 204 207 211 218 219 206 200 204 205 207 211 218 224
207 255 315 262 216 169 172 203 187 171 252 267 259 271 291 276 304 295 274 310 260 221 201 200 198 190 188 193 199 199 199 201 206 211 214 219 218 212 211 209 210 214 220 224
178 249 272 301 11 257 185 161 126 162 220 255 270 254 242 244 250 253 242 247 257 250 223 221 217 208 205 205 207 201 197 202 208 209 214 217 223 219 214 203 212 216 223 221
163 207 277 303 209 212 175 179 179 181 197 208 261 263 221 213 222 230 243 242 241 232 231 237 237 224 212 209 198 198 197 194 210 216 224 224 226 223 210 208 215 216 223 221
176 165 250 248 248 232 205 202 176 197 232 211 233 263 254 224 230 217 242 259 241 229 233 234 234 246 232 228 227 218 208 211 226 229 219 221 224 219 215 219 223 218 213 218
155 154 293 317 301 288 231 218 200 186 189 209 223 258 276 2 257 239 238 259 255 241 251 255 242 233 232 237 237 234 229 229 236 228 221 223 222 226 230 232 232 229 222 219
163 188 207 228 240 207 234 232 204 187 214 232 234 251 268 266 259 257 251 253 250 244 242 245 246 245 242 240 241 240 243 241 237 228 227 233 235 228 235 237 228 231 229 222
153 222 238 256 264 247 242 240 216 214 218 227 245 244 258 253 247 246 242 252 259 257 248 246 247 248 246 243 244 244 250 245 234 226 234 242 247 239 235 238 236 229 231 238
171 215 246 268 262 257 260 255 235 231 234 238 254 263 262 264 261 252 244 240 249 258 254 250 248 247 245 243 242 243 249 250 231 230 242 252 251 248 244 242 241 243 244 247
185 181 217 265 285 298 263 243 226 222 220 216 236 250 266 265 258 247 244 235 242 251 256 255 247 242 242 240 234 230 234 241 231 235 249 252 248 251 251 247 241 243 244 243
180 181 206 259 307 250 249 229 210 221 239 226 236 258 259 255 260 260 247 235 247 250 255 261 259 251 249 244 236 229 220 221 233 240 248 253 249 251 251 241 242 245 247 245
192 188 209 220 248 267 278 253 189 206 255 232 236 256 265 276 303 281 261 237 237 245 250 256 254 254 248 235 227 212 224 226 238 246 250 253 252 254 251 249 250 250 243 250
179 187 207 216 237 254 258 239 186 145 267 241 223 246 257 249 263 267 274 291 284 277 264 262 269 257 239 242 199 191 224 229 245 250 254 257 251 247 249 250 258 263 252 254
180 207 218 227 240 259 259 228 132 188 256 289 241 242 223 222 238 270 302 300 280 291 292 281 251 249 249 224 172 197 225 247 257 263 265 267 256 249 246 244 254 256 261 262
192 195 211 208 228 252 208 150 191 232 300 279 263 247 228 243 256 276 283 287 300 319 328 331 247 284 297 196 167 219 256 269 274 272 269 264 260 257 260 241 251 253 252 253
205 201 202 205 224 274 179 207 260 310 280 275 263 262 232 237 255 278 292 293 292 295 301 316 182 331 340 318 187 233 278 285 283 283 275 271 273 267 265 246 250 248 242 243
243 212 207 245 255 261 264 276 292 289 277 283 268 257 220 229 249 280 288 295 298 300 297 308 78 333 316 323 320 272 295 315 285 280 284 281 272 275 272 269 253 249 246 242
223 190 215 245 267 299 284 265 270 287 307 304 307 289 233 217 252 263 277 287 287 293 305 297 253 270 298 325 324 321 325 337 305 289 287 294 293 284 278 281 267 262 248 243
201 196 206 239 239 233 265 274 270 266 278 277 296 328 329 240 247 270 282 287 286 289 303 311 302 298 309 322 319 323 323 312 290 296 300 295 291 290 287 290 305 304 296 288
Height
1498 1503 1504 1502 1501 1500 1501 1502 1502 1499 1496 1498 1497 1494 1491 1489 1489 1489 1489 1489 1489 1490 1492 1494 1496 1498 1500 1501 1502 1503 1504 1506 1507 1508 1509 1510 1510 1511 1512 1513 1515 1516 1516 1517
1502 1503 1498 1498 1499 1500 1500 1502 1501 1498 1497 1498 1497 1493 1488 1486 1485 1484 1484 1484 1485 1486 1488 1490 1492 1494 1496 1497 1499 1500 1501 1502 1503 1504 1506 1507 1507 1508 1509 1510 1511 1512 1513 1514
1500 1499 1496 1497 1499 1500 1500 1501 1500 1500 1498 1498 1498 1492 1487 1483 1482 1481 1480 1480 1481 1483 1484 1486 1488 1490 1492 1493 1495 1496 1498 1499 1500 1501 1503 1504 1504 1505 1506 1507 1508 1509 1510 1510
1500 1497 1496 1497 1497 1498 1499 1497 1497 1498 1502 1504 1501 1500 1485 1483 1481 1478 1477 1477 1478 1479 1481 1483 1485 1487 1488 1490 1492 1493 1494 1495 1496 1497 1499 1499 1500 1500 1501 1503 1504 1505 1506 1507
1498 1496 1496 1496 1495 1496 1496 1496 1497 1498 1501 1505 1503 1504 1489 1483 1480 1476 1474 1474 1475 1476 1478 1480 1481 1483 1485 1487 1488 1490 1491 1492 1493 1494 1494 1495 1496 1497 1498 1499 1500 1501 1502 1503
1497 1495 1495 1494 1494 1494 1495 1497 1499 1502 1504 1503 1497 1502 1490 1483 1476 1473 1472 1472 1473 1474 1476 1477 1479 1481 1482 1484 1485 1486 1487 1488 1489 1490 1490 1491 1492 1493 1494 1495 1496 1497 1498 1499
1498 1496 1494 1493 1494 1495 1496 1502 1506 1505 1505 1498 1493 1496 1487 1476 1473 1471 1471 1470 1471 1472 1473 1474 1476 1477 1478 1480 1481 1482 1483 1484 1485 1486 1486 1487 1488 1489 1490 1490 1491 1493 1493 1494
1500 1498 1493 1492 1493 1495 1496 1498 1504 1504 1502 1498 1493 1493 1481 1474 1472 1470 1470 1470 1470 1471 1471 1472 1473 1474 1475 1477 1478 1479 1480 1480 1481 1482 1483 1484 1484 1485 1485 1486 1487 1488 1489 1490
1499 1496 1492 1491 1491 1493 1496 1498 1497 1503 1505 1505 1495 1490 1479 1472 1472 1471 1470 1470 1469 1470 1470 1470 1471 1472 1473 1474 1474 1475 1476 1477 1477 1478 1479 1480 1480 1481 1481 1482 1483 1484 1485 1485
1495 1498 1494 1492 1492 1492 1493 1495 1501 1502 1501 1499 1491 1488 1479 1473 1471 1470 1470 1469 1468 1469 1469 1469 1469 1470 1471 1471 1472 1472 1473 1473 1474 1474 1475 1476 1476 1477 1477 1478 1478 1479 1480 1480
1493 1497 1496 1495 1494 1492 1494 1495 1495 1499 1499 1498 1495 1481 1469 1468 1467 1468 1468 1467 1467 1467 1467 1467 1467 1468 1468 1468 1468 1469 1469 1470 1470 1471 1471 1471 1472 1473 1473 1473 1474 1474 1475 1476
1491 1496 1498 1493 1490 1489 1489 1489 1493 1495 1496 1498 1493 1480 1465 1466 1464 1465 1466 1466 1465 1466 1466 1465 1465 1465 1465 1465 1465 1465 1465 1466 1466 1466 1467 1467 1468 1468 1468 1469 1469 1470 1471 1471
1490 1495 1497 1490 1492 1492 1490 1488 1488 1490 1492 1495 1491 1477 1465 1464 1464 1464 1464 1464 1464 1464 1463 1463 1462 1462 1462 1461 1461 1462 1462 1462 1462 1462 1462 1462 1463 1463 1464 1464 1465 1465 1466 1466
1485 1491 1491 1485 1479 1484 1486 1485 1486 1488 1489 1488 1480 1470 1465 1464 1464 1463 1463 1462 1461 1461 1460 1460 1459 1458 1458 1458 1458 1458 1458 1458 1458 1458 1458 1458 1458 1459 1459 1460 1460 1460 1460 1461
1484 1488 1487 1483 1480 1481 1479 1478 1480 1481 1478 1477 1468 1467 1460 1459 1460 1459 1459 1459 1458 1457 1457 1456 1455 1455 1454 1454 1454 1454 1454 1454 1454 1454 1454 1454 1454 1454 1455 1455 1455 1455 1456 1456
1483 1486 1486 1483 1478 1478 1476 1472 1472 1473 1472 1470 1466 1462 1455 1455 1456 1456 1455 1455 1454 1453 1453 1453 1452 1451 1451 1450 1450 1450 1449 1449 1449 1449 1449 1450 1450 1450 1450 1450 1450 1451 1451 1451
1483 1484 1485 1481 1480 1477 1471 1464 1464 1465 1464 1463 1460 1454 1452 1453 1453 1452 1451 1451 1450 1449 1449 1449 1448 1448 1447 1447 1446 1445 1445 1445 1445 1445 1445 1445 1445 1445 1445 1445 1445 1446 1446 1446
1479 1481 1483 1483 1482 1477 1457 1456 1456 1458 1456 1456 1454 1451 1451 1450 1448 1448 1447 1447 1446 1446 1445 1445 1444 1444 1443 1443 1442 1442 1441 1441 1440 1440 1440 1440 1440 1440 1440 1440 1440 1441 1441 1441
1473 1477 1480 1481 1479 1466 1457 1454 1455 1456 1452 1449 1450 1448 1448 1447 1446 1444 1444 1444 1443 1442 1442 1441 1440 1440 1439 1439 1438 1437 1437 1437 1436 1436 1436 1436 1436 1436 1436 1436 1436 1436 1436 1436
1472 1474 1477 1477 1473 1464 1451 1451 1451 1454 1451 1445 1444 1444 1445 1445 1447 1442 1440 1440 1439 1439 1438 1437 1436 1436 1435 1435 1434 1434 1433 1432 1432 1432 1432 1432 1431 1431 1431 1431 1431 1431 1431 1431
1474 1474 1474 1472 1469 1457 1451 1450 1451 1454 1445 1443 1442 1441 1442 1442 1441 1439 1437 1436 1436 1435 1434 1433 1433 1432 1432 1431 1431 1430 1429 1429 1429 1428 1428 1428 1428 1427 1427 1427 1427 1427 1427 1426
1468 1470 1471 1469 1466 1455 1450 1450 1450 1445 1443 1441 1440 1439 1439 1438 1437 1436 1434 1433 1433 1431 1431 1430 1429 1429 1428 1428 1427 1426 1426 1426 1425 1425 1424 1424 1424 1423 1423 1422 1422 1422 1422 1422
1462 1460 1458 1458 1452 1447 1446 1444 1444 1443 1441 1439 1438 1437 1436 1435 1434 1433 1432 1431 1430 1429 1428 1427 1426 1426 1425 1425 1424 1423 1423 1422 1421 1421 1421 1420 1420 1419 1419 1418 1418 1418 1417 1417
1458 1456 1456 1455 1447 1445 1444 1442 1441 1440 1439 1438 1437 1435 1434 1432 1431 1430 1429 1428 1427 1426 1425 1424 1423 1423 1422 1422 1421 1421 1420 1419 1418 1417 1417 1416 1416 1415 1415 1415 1414 1414 1413 1413
1452 1453 1452 1450 1444 1443 1440 1439 1439 1438 1436 1435 1434 1433 1432 1430 1429 1428 1427 1426 1425 1424 1423 1422 1421 1420 1420 1419 1418 1418 1417 1416 1414 1414 1413 1413 1412 1412 1411 1411 1410 1410 1409 1409
1449 1450 1449 1443 1440 1440 1438 1436 1436 1435 1434 1433 1431 1430 1429 1428 1426 1425 1424 1423 1422 1422 1421 1420 1419 1418 1417 1416 1415 1415 1414 1413 1411 1410 1410 1409 1408 1408 1407 1406 1406 1405 1406 1405